Weather History for KBTR - May, 2013

Change the Weather History Date:

Thursday, May 9, 2013

  Actual Average Record
Temperature  
Mean Temperature 73 °F 74 °F  
Max Temperature 84 °F 85 °F 95 °F (1922)
Min Temperature 61 °F 64 °F 46 °F (1930)
Degree Days  
Heating Degree Days 0 0  
Month to date heating degree days 30 0  
Since 1 July heating degree days 1551 1553  
Cooling Degree Days 8 9  
Month to date cooling degree days 30 74  
Year to date cooling degree days 187 305  
Growing Degree Days 22 (Base 50)    
Moisture  
Dew Point 64 °F    
Average Humidity 74    
Maximum Humidity 100    
Minimum Humidity 47    
Precipitation  
Precipitation 0.00 in 0.17 in 4.67 in (1893)
Month to date precipitation 0.08 1.37  
Year to date precipitation 31.23 21.00  
Snow  
Snow 0.00 in - - ()
Month to date snowfall 0.0  
Since 1 July snowfall 0.0  
Snow Depth 0.00 in    
Sea Level Pressure  
Sea Level Pressure 30.05 in    
Wind  
Wind Speed 8 mph (SE)    
Max Wind Speed 23 mph    
Max Gust Speed 26 mph    
Visibility 9 miles    
Events      
T = Trace of Precipitation, MM = Missing Value Source: NWS Daily Summary

Daily Weather History Graph

Daily Weather History Graph

Search for Another Location

Airport or City:

Trip Planner

Search our weather history database for the weather conditions in past years. The results will help you decide how hot, cold, wet, or windy it might be!

Date:

Astronomy

May. 09, 2013 Rise Set
Actual Time 6:14 AM CDT 7:48 PM CDT
Civil Twilight 5:48 AM CDT 8:14 PM CDT
Nautical Twilight 5:16 AM CDT 8:45 PM CDT
Astronomical Twilight 4:44 AM CDT 9:18 PM CDT
Moon 5:56 AM CDT (5/9) 7:43 PM CDT (5/9)
Length of Visible Light 14h 26m
Length of Day
13h 34m
Waning Crescent, 0% of the Moon is Illuminated
May 9
Waning Crescent
May 9
New
May 17
First Quarter
May 24
Full
May 31
Last Quarter

Hourly Weather History & Observations

Time (CDT) Temp. Heat Index Dew Point Humidity Pressure Visibility Wind Dir Wind Speed Gust Speed Precip Events Conditions
12:53 AM 66.9 °F - 63.0 °F 87% 30.06 in 10.0 mi South 6.9 mph - N/A   Clear
1:53 AM 66.9 °F - 63.0 °F 87% 30.04 in 10.0 mi South 6.9 mph - N/A   Clear
2:53 AM 66.0 °F - 63.0 °F 90% 30.03 in 10.0 mi SE 4.6 mph - N/A   Clear
3:53 AM 63.0 °F - 61.0 °F 93% 30.03 in 8.0 mi ESE 4.6 mph - N/A   Clear
4:53 AM 62.1 °F - 61.0 °F 96% 30.04 in 5.0 mi Calm Calm - N/A   Clear
5:53 AM 61.0 °F - 60.1 °F 97% 30.06 in 6.0 mi ENE 3.5 mph - N/A   Clear
6:53 AM 62.1 °F - 61.0 °F 96% 30.08 in 5.0 mi ENE 4.6 mph - N/A   Clear
7:53 AM 64.9 °F - 63.0 °F 93% 30.08 in 7.0 mi East 4.6 mph - N/A   Clear
8:53 AM 71.1 °F - 64.9 °F 81% 30.09 in 10.0 mi SE 4.6 mph - N/A   Partly Cloudy
9:53 AM 75.9 °F - 64.9 °F 69% 30.10 in 10.0 mi South 11.5 mph - N/A   Scattered Clouds
10:01 AM 75.2 °F - 64.4 °F 69% 30.10 in 10.0 mi South 11.5 mph - N/A   Mostly Cloudy
10:53 AM 78.1 °F - 64.0 °F 62% 30.10 in 10.0 mi Variable 6.9 mph - N/A   Scattered Clouds
11:53 AM 80.6 °F 82.3 °F 64.4 °F 58% 30.10 in 10.0 mi Variable 6.9 mph - N/A   Partly Cloudy
12:53 PM 82.0 °F 83.4 °F 64.0 °F 54% 30.09 in 10.0 mi South 12.7 mph - N/A   Scattered Clouds
1:53 PM 82.9 °F 83.3 °F 61.0 °F 47% 30.07 in 10.0 mi South 10.4 mph 19.6 mph N/A   Mostly Cloudy
2:53 PM 82.4 °F 83.4 °F 62.6 °F 51% 30.05 in 10.0 mi SSW 11.5 mph - N/A   Overcast
3:53 PM 80.1 °F 81.5 °F 63.0 °F 56% 30.04 in 10.0 mi South 11.5 mph - N/A   Overcast
4:53 PM 80.1 °F 81.7 °F 64.0 °F 58% 30.02 in 10.0 mi South 12.7 mph - N/A   Mostly Cloudy
5:53 PM 78.1 °F - 64.0 °F 62% 30.02 in 10.0 mi South 10.4 mph - N/A   Mostly Cloudy
6:53 PM 77.0 °F - 62.6 °F 61% 30.01 in 10.0 mi SSE 10.4 mph - N/A   Scattered Clouds
7:53 PM 75.9 °F - 64.9 °F 69% 30.01 in 10.0 mi ESE 6.9 mph - N/A   Mostly Cloudy
8:53 PM 75.0 °F - 64.0 °F 69% 30.00 in 10.0 mi ESE 8.1 mph - N/A   Clear
9:53 PM 73.9 °F - 66.0 °F 76% 30.03 in 10.0 mi East 5.8 mph - N/A   Partly Cloudy
10:53 PM 73.0 °F - 68.0 °F 84% 30.03 in 10.0 mi ESE 8.1 mph - N/A   Mostly Cloudy
11:53 PM 73.4 °F - 68.0 °F 83% 30.00 in 10.0 mi ESE 10.4 mph - N/A   Mostly Cloudy